Home   Weather   Göttingen   Past weeks

Flag for Germany Past Weather in Göttingen, Lower Saxony, Germany — Yesterday and Last 2 Weeks

Now
37 °F

Clear.


Feels Like: 37 °F
Forecast: 28 / 54 °F
Wind: 1 mph from North

Location: Kassel / Calden

Current Time: Apr 27, 2017 at 10:38:20 pm

Latest Report: Apr 27, 2017 at 10:20 pm


Visibility: 10 mi

Pressure: 29.95 "Hg

Humidity: 65%

Dew Point: 27 °F

Location of GöttingenLocation

Past Weather in Göttingen — Graph

°F

Göttingen Temperature Yesterday

Maximum temperature yesterday: 50 °F (at 4:50 pm)
Minimum temperature yesterday: 34 °F (at 3:50 am)
Average temperature yesterday: 42 °F

High & Low Weather Summary for the Past Weeks

 TemperatureHumidityPressure
High57 °F (Apr 24, 4:20 pm)100% (Apr 13, 3:20 am)30.60 "Hg (Apr 13, 3:20 am)
Low25 °F (Apr 20, 5:20 am)37% (Apr 26, 5:20 pm)29.65 "Hg (Apr 25, 6:50 am)
Average43 °F68%30.09 "Hg
* Reported Apr 12 8:50 pm — Apr 27 8:50 pm, Göttingen, Weather by CustomWeather, © 2017

Note: Actual official high and low records may vary slightly from our data, if they occured in-between our weather recording intervals... More about our weather records

Advertising

Göttingen Weather History for the Previous 24 Hours

Scroll right to see more
 ConditionsComfort  
Time TempWeatherWind HumidityBarometerVisibility
8:50 pm
Thu, Apr 27
43 °FClear.6 mph49%29.95 "Hg10 mi
8:20 pm45 °FSunny.7 mph46%29.95 "Hg10 mi
7:50 pm45 °FScattered clouds.8 mph46%29.95 "HgN/A
7:20 pm48 °FScattered clouds.13 mph37%29.95 "HgN/A
6:50 pm48 °FScattered clouds.9 mph37%29.95 "HgN/A
6:20 pm48 °FScattered clouds.8 mph37%29.95 "HgN/A
5:50 pm48 °FScattered clouds.9 mph40%29.95 "HgN/A
5:20 pm50 °FBroken clouds.10 mph37%29.95 "HgN/A
4:50 pm48 °FPartly sunny.9 mph40%29.95 "HgN/A
4:20 pm48 °FBroken clouds.9 mph46%29.95 "HgN/A
3:50 pm48 °FBroken clouds.9 mph46%29.95 "HgN/A
3:20 pm48 °FBroken clouds.10 mph46%29.95 "HgN/A
2:50 pm48 °FBroken clouds.10 mph46%29.95 "HgN/A
2:20 pm48 °FBroken clouds.12 mph50%29.95 "HgN/A
1:50 pm46 °FBroken clouds.7 mph53%29.95 "HgN/A
1:20 pm46 °FBroken clouds.9 mph53%29.95 "HgN/A
12:50 pm46 °FBroken clouds.6 mph53%29.98 "HgN/A
12:20 pm45 °FBroken clouds.12 mph61%29.98 "HgN/A
11:50 am46 °FBroken clouds.7 mph57%29.98 "HgN/A
11:20 am45 °FPartly sunny.7 mph61%29.98 "HgN/A
10:50 am45 °FScattered clouds.7 mph61%29.98 "HgN/A
10:20 am45 °FScattered clouds.7 mph61%29.98 "HgN/A
9:50 am43 °FScattered clouds.7 mph71%29.98 "Hg6 mi
9:20 am41 °FPassing clouds.6 mph76%29.98 "Hg6 mi
8:50 am39 °FPassing clouds.7 mph81%29.98 "Hg6 mi
8:20 am37 °FPassing clouds.6 mph87%29.95 "Hg6 mi
7:50 am36 °FScattered clouds.1 mph93%29.95 "Hg5 mi
7:20 am34 °FScattered clouds.1 mph93%29.95 "Hg5 mi
5:20 am32 °FClear.3 mph100%29.92 "Hg4 mi
4:50 am32 °FClear.6 mph93%29.92 "Hg10 mi
4:20 am36 °FClear.7 mph87%29.92 "Hg10 mi
3:20 am36 °FClear.3 mph87%29.92 "Hg10 mi
2:50 am36 °FClear.6 mph87%29.92 "Hg10 mi
2:20 am36 °FClear.3 mph87%29.92 "Hg10 mi
1:50 am37 °FClear.6 mph81%29.92 "Hg10 mi
1:20 am39 °FClear.6 mph75%29.92 "Hg10 mi
12:50 am39 °FClear.5 mph75%29.92 "Hg10 mi
12:20 am39 °FPartly cloudy.1 mph75%29.92 "HgN/A
11:50 pm
Wed, Apr 26
39 °FPassing clouds.3 mph81%29.92 "HgN/A
11:20 pm39 °FLight rain. Passing clouds.5 mph81%29.92 "HgN/A
10:50 pm41 °FScattered showers. Passing clouds.5 mph70%29.92 "HgN/A
10:20 pm41 °FScattered showers. Clear.2 mph66%29.92 "HgN/A
Weather by CustomWeather, © 2017

See weather overviewHow to use our weather pages